Powrót do katalogu

SL-8 DEB

AktywnyLEO
NORAD 11752·DEBRIS·🇷🇺 Russia

Wystrzelony Apr 3, 1980 z Plesetsk Cosmodrome

Loading…

Następne Przeloty (najbliższe 24 godziny)

TLE

ŚwieżeSource: Space-Track

Epoka: Sep 14, 2026, 06:32 UTC

1 11752U 80026C   26257.27280258 -.00000037  00000-0  45548-4 0  9999
2 11752  65.8420 188.6795 0030398 243.3039 271.3642 13.75351761331331

Śledź SL-8 DEB w czasie rzeczywistym z AllMySat

Download on the App Store